TimeEST,TemperatureF,Dew PointF,Humidity,Sea Level PressureIn,VisibilityMPH,Wind Direction,Wind SpeedMPH,Gust SpeedMPH,PrecipitationIn,Events,Conditions,WindDirDegrees,DateUTC
12:53 AM,59.0,53.1,81,30.25,10.0,NNW,6.9,-,N/A,,Partly Cloudy,330,2013-01-24 05:53:00
1:53 AM,60.1,54.0,80,30.25,10.0,NW,6.9,-,N/A,,Mostly Cloudy,320,2013-01-24 06:53:00
2:53 AM,62.1,53.1,72,30.24,10.0,NNW,8.1,-,N/A,,Mostly Cloudy,330,2013-01-24 07:53:00
3:53 AM,62.1,53.1,72,30.23,10.0,NNW,5.8,-,N/A,,Mostly Cloudy,330,2013-01-24 08:53:00
4:53 AM,60.1,53.1,78,30.22,10.0,NNW,6.9,-,N/A,,Mostly Cloudy,330,2013-01-24 09:53:00
5:53 AM,60.1,51.1,72,30.24,10.0,NNW,8.1,-,N/A,,Scattered Clouds,330,2013-01-24 10:53:00
6:53 AM,60.1,48.0,64,30.26,10.0,NNW,9.2,-,N/A,,Mostly Cloudy,340,2013-01-24 11:53:00
7:53 AM,61.0,41.0,48,30.27,10.0,NNW,4.6,-,N/A,,Scattered Clouds,330,2013-01-24 12:53:00
8:53 AM,64.9,39.0,39,30.29,10.0,NNW,8.1,-,N/A,,Partly Cloudy,340,2013-01-24 13:53:00
9:53 AM,70.0,39.9,33,30.29,10.0,North,6.9,-,N/A,,Partly Cloudy,350,2013-01-24 14:53:00
10:53 AM,72.0,44.1,37,30.30,10.0,NNW,8.1,-,N/A,,Partly Cloudy,340,2013-01-24 15:53:00
11:53 AM,73.0,48.9,42,30.28,10.0,Variable,5.8,-,N/A,,Partly Cloudy,0,2013-01-24 16:53:00
12:53 PM,73.9,50.0,43,30.25,10.0,Variable,6.9,-,N/A,,Scattered Clouds,0,2013-01-24 17:53:00
1:53 PM,73.9,48.0,40,30.22,10.0,North,6.9,-,N/A,,Partly Cloudy,10,2013-01-24 18:53:00
2:53 PM,73.9,48.9,41,30.20,10.0,NE,12.7,-,N/A,,Partly Cloudy,50,2013-01-24 19:53:00
3:53 PM,73.9,48.9,41,30.21,10.0,NNE,13.8,-,N/A,,Partly Cloudy,20,2013-01-24 20:53:00
4:53 PM,72.0,46.0,40,30.22,10.0,NNE,12.7,-,N/A,,Partly Cloudy,20,2013-01-24 21:53:00
5:53 PM,69.1,50.0,51,30.24,10.0,NNE,11.5,-,N/A,,Partly Cloudy,20,2013-01-24 22:53:00
6:53 PM,68.0,51.1,55,30.24,10.0,NNE,5.8,-,N/A,,Partly Cloudy,20,2013-01-24 23:53:00
7:53 PM,64.9,51.1,61,30.25,10.0,North,3.5,-,N/A,,Partly Cloudy,360,2013-01-25 00:53:00
8:53 PM,62.1,52.0,70,30.27,10.0,NNW,4.6,-,N/A,,Partly Cloudy,340,2013-01-25 01:53:00
9:53 PM,62.1,52.0,70,30.27,10.0,North,4.6,-,N/A,,Partly Cloudy,350,2013-01-25 02:53:00
10:53 PM,59.0,51.1,75,30.27,10.0,NW,4.6,-,N/A,,Partly Cloudy,320,2013-01-25 03:53:00
11:53 PM,59.0,51.1,75,30.26,10.0,NNW,5.8,-,N/A,,Partly Cloudy,330,2013-01-25 04:53:00